User: anonymous   Login
Location: Unspecified
(0.0000°N, 0.0000°E)
Time: 09:19:21
(UTC+02:00)
Language:

Resurs 01 Rocket - Orbit

View from above orbital plane
View from above orbital plane
View from above satellite
View from above satellite

Ground track
Ground track

The orbit data is extracted from the following two-line orbital elements,

1 23343U 94074B   17083.71970067 +.00000016 +00000-0 +98489-5 0  9995
2 23343 098.1637 119.9175 0006638 355.4973 118.4331 14.76691893204150
Epoch (UTC): 24 March 2017 17:16:22
Eccentricity: 0.0006638
inclination: 98.1637°
perigee height: 635 km
apogee height: 644 km
right ascension of ascending node: 119.9175°
argument of perigee: 355.4973°
revolutions per day: 14.76691893
mean anomaly at epoch: 118.4331°
orbit number at epoch: 20415

The dashed part of the orbit path shows where the satellite is in the earth's shadow,  

DLR